Aérodrome :
LOGIN :

S'inscrire | Disclaimer

   EN    FR    IT 

 










Légende :    VFR   VFR Marginal   IFR   IFR Intensif   IFR Très Intensif
Visi : 
Plafond : 
>= 8 km
>= 3000ft
5 à 8 km
1000 à 3000 ft
1500m à 5 km
500 à 1000 ft
800 à 1500m
200 à 500 ft
< 800m
< 200 ft
Symboles :   Orages  Brouillard  Fortes neiges  Fortes précipitations  Vent > 20 kt
SIGMETs :   Divers  Orages  Givrage  Turbulence  Onde Orograph.  Cendres Volcan.







- Altitude de l'aérodrome : 202 ft
- Code IATA : LGW
- Voir les cartes d'approche


EGKK - London Gatwick

DERNIER METAR :
  • 241650Z 31013KT CAVOK 13/00 Q1028

METARs EXPIRÉS :
  • 241620Z 31012KT CAVOK 14/01 Q1028
  • 241550Z 30009KT 270V330 CAVOK 14/01 Q1028
  • 241520Z 31010KT 280V340 CAVOK 14/01 Q1028
  • 241450Z 30010KT 9999 FEW048 14/01 Q1028
  • 241420Z 31008KT 270V360 9999 FEW040 14/02 Q1029

TAF TAF EGKK
Valide du 24 à 12h jusqu'au 25 à 18h UTC


241100Z 2412/2518 30006KT 9999 FEW045
BECMG 2506/2509 36012KT
Pas de NOTAMs connus pour ce terrain.



MET'MAP, la Météo Aéronautique d'un coup d'oeil ! - Copyright ORBIFLY Décembre 2007 - Disclaimer

ORBIFLY MET'MAP TEAM :

Programmation & Développement : Alexandra Zaïnal
Conception & Développement : Baudouin d'Aumeries
Co-Programmation & Développement : Marc-Olivier Méhu
Soutien technique & logistique : Manuel Goepfert

Contact : metmap@orbifly.com




SOURCES & CREDITS :

   NOAA